Regional Weather Roundup
Issued by NWS Grand Forks, ND

Home | Current Version | Previous Version | Graphics & Text | Print | Product List | Glossary On
Versions: 1 2 3 4 5 6 7 8 9 10 11 12 13 14 15 16 17 18 19 20 21 22 23 24 25 26 27 28 29 30 31 32 33 34 35 36 37 38 39 40 41 42 43 44 45 46 47 48 49 50
004
ASUS43 KFGF 200210
RWRFGF
PRAIRIE TO PINES  WEATHER ROUNDUP
NATIONAL WEATHER SERVICE EASTERN NORTH DAKOTA/GRAND FORKS ND
900 PM CDT SAT AUG 19 2017

 **SATELLITE DATA USED TO AUGMENT SKY COVER AT AUTOMATED STATIONS**
 *****  WEATHER ACROSS EASTERN NORTH DAKOTA  *****

CITY           SKY/WX    TMP DP  RH WIND       PRES   REMARKS
GRAND FORKS    FAIR      76  65  68 S14       29.71S
GRAND FRKS AFB FAIR      74  62  68 S10       29.72S
DEVILS LAKE    FAIR      76  65  68 S13       29.70R
FARGO          FAIR      74  64  71 S13G20    29.76R
WAHPETON ARPT  FAIR      68  61  77 SE7       29.80R
$$

 ***** WEATHER ACROSS CENTRAL AND WESTERN NORTH DAKOTA  *****

CITY           SKY/WX    TMP DP  RH WIND       PRES   REMARKS
BISMARCK       FAIR      80  54  40 NW16      29.79R
MINOT          FAIR      75  50  41 W20G25    29.79R
JAMESTOWN      FAIR      70  63  78 S8        29.74S
MINOT AFB      FAIR      74  48  39 NW21      29.77R
GARRISON         N/A     72  55  55 NW12G24   29.80R
WILLISTON      FAIR      73  40  30 NW17      29.89R
DICKINSON      FAIR      73  50  44 N10       29.87R
HETTINGER      FAIR      74  45  35 NW9       29.88R
$$

 *****  OTHER AIRPORT OBSERVATIONS IN OUR AREA  *****

CITY           SKY/WX    TMP DP  RH WIND       PRES   REMARKS
WALHALLA       FAIR      77  75  94 S9G16     29.65S
GRAFTON AIRPOR FAIR      73  63  68 S13       29.71R
VALLEY CITY AR   N/A     73  66  78 S10       29.77R
CANDO          FAIR      72  72 100 SW9       29.71R
CAVALIER APRT  FAIR      75  61  60 S10       29.67R
GWINNER        CLEAR     68  64  88 CALM      29.78R
SHEYENNE NWR     N/A     70  64  82 S6        29.95S
ROLLA          FAIR      73  55  53 NW15      29.72R
 ***** THE ABOVE OBSERVATIONS ARE NON NWS ARE NOT QUALITY
       CONTROLLED AND MAY MIS-REPORT RAIN FOR SNOW...
$$

  *****  WEATHER ACROSS NORTHERN MINNESOTA  *****

CITY           SKY/WX    TMP DP  RH WIND       PRES   REMARKS
FLAG ISLAND    FAIR      73  66  78 S3        29.73R
WARROAD        FAIR      70  63  78 S3        29.76R
ROSEAU         FAIR      72  63  73 S9        29.75R
HALLOCK        FAIR      75  63  64 S14       29.69S
THF RVR FALLS  FAIR      69  61  75 S9        29.78R
BAUDETTE       FAIR      69  57  65 S7        29.77S
WASKISH        FAIR      68  61  77 CALM      29.80R
CROOKSTON      FAIR      75  61  60 S13G20    29.76S
STEPHEN NDAWN    N/A    N/A N/A N/A S9          N/A
GREENBUSH NDAW   N/A     72  61  68 S7          N/A
$$
  *****  WEATHER ACROSS CENTRAL AND WEST MINNESOTA  *****

CITY           SKY/WX    TMP DP  RH WIND       PRES   REMARKS
FOSSTON        FAIR      63  57  82 S6        29.81R
BEMIDJI        FAIR      68  59  73 S5        29.82R
PARK RAPIDS    FAIR      70  60  70 SE6       29.84R
ELBOW LAKE     FAIR      67  64  88 E7        29.83R
WADENA         FAIR      66  61  82 CALM      29.84S
DETROIT LAKES  FAIR      70  61  73 S6        29.84R
MOORHEAD       FAIR      72  63  73 SE9       29.78S
FERGUS FALLS   FAIR      70  63  78 SE7       29.81R
MORRIS MN      FAIR      68  64  88 SE8       29.81S
STAPLES        FAIR      68  61  77 CALM      29.85S
$$
  *****  WEATHER ELSEWHERE ACROSS MINNESOTA  *****

CITY           SKY/WX    TMP DP  RH WIND       PRES   REMARKS
DULUTH         FAIR      69  62  78 SW7       29.88R
INTRNTL FALLS  FAIR      68  58  70 CALM      29.80R
ELY            FAIR      64  57  77 CALM      29.85S
CLOQUET        FAIR      66  59  77 SW3       29.88R
WHEATON        FAIR      66  63  88 SE7       29.81S
BRAINERD       FAIR      66  61  84 S3        29.86R
HIBBING        FAIR      63  59  87 CALM      29.86R
ALEXANDRIA     FAIR      68  63  84 SE8       29.86R
SAINT CLOUD    FAIR      67  63  87 SE5       29.87R
MINNEAPOLIS    FAIR      76  62  62 VRB6      29.88S
$$

  *****  WEATHER ACROSS SOUTH DAKOTA  *****

CITY           SKY/WX    TMP DP  RH WIND       PRES   REMARKS
SIOUX FALLS    FAIR      75  65  70 SE7       29.86R
BROOKINGS      FAIR      71  65  81 S15       29.84S
WATERTOWN      FAIR      70  64  81 S12       29.82S
HURON          FAIR      74  64  71 SE12      29.79R
SISSETON         N/A     69  64  84 S6        29.78R
ABERDEEN       FAIR      70  64  81 S7        29.77R
MITCHELL       FAIR      75  66  73 SE8       29.82R
PIERRE         FAIR      79  65  62 SE8       29.74R
MOBRIDGE       FAIR      73  63  70 N7        29.76R
RAPID CITY     FAIR      78  40  25 N12       29.89R
$$

  *****  SOME WEATHER IN NEARBY STATES *****

CITY           SKY/WX    TMP DP  RH WIND       PRES   REMARKS
GLASGOW MT     FAIR      72  34  24 N13       29.94R
GREAT FALLS MT FAIR      70  37  29 E15       29.99R
CHEYENNE WY    FAIR      78  25  14 NW8       30.08R
SCOTTSBLUFF NE FAIR      75  55  49 NE8       29.90R
OMAHA NE       MOCLDY    79  63  57 SE12      29.86S
DES MOINES IA  FAIR      79  58  48 E6        29.90R
DAVENPORT IA   FAIR      69  62  78 E6        29.96S
CHICAGO IL     FAIR      73  53  49 SE6       29.96R
EAU CLAIRE WI  FAIR      67  62  84 CALM      29.91R
LA CROSSE WI   FAIR      72  63  73 SE3       29.92R
$$

  *****  SOME NATIONAL WEATHER *****

CITY           SKY/WX    TMP DP  RH WIND       PRES   REMARKS
LA GUARDIA NY  FAIR      83  65  54 W9        29.87R
RALEIGH NC     FAIR      79  71  76 CALM      29.98R
ATLANTA GA     FAIR      80  68  66 W5        30.02R
NEW ORLEANS LA CLOUDY    78  75  90 CALM      29.99F
OKLAHOMA CITY  FAIR      84  71  65 SW8       29.93R
ALBUQUERQUE NM MOCLDY    77  48  35 E18G28    30.10R
SALT LAKE CITY MOCLDY    89  38  16 N7        29.94S
LOS ANGELES CA FAIR      69  62  78 W13       29.89S
BOISE ID       FAIR      84  34  16 NW12      29.92F
SEATTLE WA     PTSUNNY   74  50  42 N9        30.15F
$$

*** WEATHER ACROSS MANITOBA...SASKATCHEWAN AND ONTARIO ***
                ***ONTARIO***

CITY           SKY/WX    TMP DP  RH WIND       PRES   REMARKS
GERALDTON      PTCLDY    64  54  68 SW5       29.78R
THUNDER BAY    PTCLDY    68  61  77 CALM      29.80R
SIOUX LOOKOUT  MOCLDY    61  57  88 S3        29.76R
TORONTO        PTCLDY    64  55  72 W8        29.92R
BIG TROUT LK   CLEAR     61  57  88 SE2       29.62S
PICKLE LAKE    MOCLDY    72  55  56 SW6       29.71S
DRYDEN         CLEAR     72  54  53 S8        29.77R
KENORA         PTCLDY    75  57  53 S10       29.74S
$$
                *** MANITOBA***

CITY           SKY/WX    TMP DP  RH WIND       PRES   REMARKS
BRANDON        MOCLDY    70  57  64 NW22G29   29.70R
DAUPHIN        CLEAR     70  57  64 W14G21    29.67R
ISLAND LAKE    MOCLDY    77  57  50 S6        29.55S
PILOT MOUND      N/A     72  64  78 SW10        N/A
THE PAS        PTCLDY    64  50  59 NW10      29.65R
THOMPSON       TSTM      64  59  82 N10       29.51F
WINNIPEG       PTCLDY    79  59  50 S14G20    29.63R
LYNN LAKE      PTCLDY    55  55 100 MISG      29.57R
CHURCHILL      FOG       52  52 100 E10       29.61S VSB 1/8
GILLAM         MOCLDY    64  55  72 E5        29.56S
$$
                ***SASKATCHEWAN***

CITY           SKY/WX    TMP DP  RH WIND       PRES   REMARKS
ESTEVAN        CLOUDY    66  39  37 NW13      29.86R
KINDERSLEY     PTCLDY    63  34  34 NW6       29.94R
LLOYDMINSTER   PTCLDY    59  45  58 W10       29.90R
PRINCE ALBERT  PTCLDY    63  43  48 W10       29.82R
REGINA         NOT AVBL
YORKTON        CLEAR     63  45  51 W9        29.79R
N. BATTLEFORD  CLEAR     63  43  48 W12G18    29.90R
LA RONGE       PTCLDY    61  45  55 W10G21    29.72R
SASKATOON      PTCLDY    63  41  45 W9        29.88R
SWIFT CURRENT  CLEAR     61  34  36 NW9       29.96R
$$
NOTE: THESE ARE AUTOMATED STATIONS WITH LIMITED QUALITY CONTROL
      "FAIR" INDICATES FEW OR NO CLOUDS BELOW 12,000 FEET WITH NO
      SIGNIFICANT WEATHER AND/OR OBSTRUCTIONS TO VISIBILITY.
      SKY/WX - SKY CONDITION AND SIGNIFICANT WEATHER.
      TMP - AIR TEMPERATURE.    DP   - DEWPOINT TEMPERATURE.
      RH  - RELATIVE HUMIDITY.  PRES - PRESSURE.
      HX  - HEAT INDEX.         WCI  - WIND CHILL INDEX.
$




USA.gov is the U.S. government's official web portal to all federal, state and local government web resources and services.